| time (UTC) | temp F | wind direction | speed MPH | gust MPH | rain 1hr in | rain 24hr in | rain mn in | humidity % | barometer mb |
| 20260506171209 | 52 | 245 | 1.0 | 1.0 | 0.00 | 0.00 | 0.44 | 81 | 1010.0 |
| 20260506170709 | 52 | 245 | 0.0 | 2.0 | 0.00 | 0.00 | 0.44 | 82 | 1010.0 |
| 20260506170210 | 52 | 245 | 0.0 | 2.0 | 0.00 | 0.00 | 0.44 | 83 | 1010.0 |
| 20260506165710 | 52 | 245 | 0.0 | 2.0 | 0.00 | 0.00 | 0.44 | 84 | 1010.0 |
| 20260506165210 | 51 | 245 | 1.0 | 1.0 | 0.00 | 0.00 | 0.44 | 83 | 1010.0 |
| 20260506164709 | 51 | 245 | 1.0 | 1.0 | 0.00 | 0.00 | 0.44 | 83 | 1010.0 |
| 20260506164209 | 51 | 245 | 1.0 | 1.0 | 0.00 | 0.00 | 0.44 | 82 | 1010.0 |
| 20260506163710 | 51 | 245 | 1.0 | 1.0 | 0.00 | 0.00 | 0.44 | 83 | 1010.0 |
| 20260506163211 | 52 | 245 | 1.0 | 3.0 | 0.00 | 0.00 | 0.44 | 85 | 1010.0 |
| 20260506162709 | 51 | 245 | 0.0 | 1.0 | 0.00 | 0.00 | 0.44 | 87 | 1010.0 |
| 20260506162211 | 51 | 245 | 0.0 | 0.0 | 0.00 | 0.00 | 0.44 | 87 | 1010.0 |
| 20260506161710 | 50 | 245 | 1.0 | 1.0 | 0.00 | 0.00 | 0.44 | 87 | 1010.0 |
| 20260506161210 | 50 | 245 | 1.0 | 2.0 | 0.00 | 0.00 | 0.44 | 88 | 1010.0 |
| 20260506160709 | 50 | 245 | 0.0 | 1.0 | 0.00 | 0.00 | 0.44 | 89 | 1010.0 |
| 20260506160210 | 50 | 245 | 0.0 | 3.0 | 0.00 | 0.00 | 0.44 | 88 | 1010.0 |
| 20260506155709 | 50 | 245 | 1.0 | 1.0 | 0.00 | 0.00 | 0.44 | 90 | 1010.0 |
| 20260506155210 | 50 | 245 | 0.0 | 2.0 | 0.00 | 0.00 | 0.44 | 90 | 1010.0 |
| 20260506154709 | 50 | 245 | 0.0 | 1.0 | 0.00 | 0.00 | 0.44 | 90 | 1010.0 |
| 20260506154209 | 50 | 245 | 2.0 | 2.0 | 0.00 | 0.00 | 0.44 | 91 | 1010.0 |
| 20260506153709 | 49 | 245 | 1.0 | 1.0 | 0.00 | 0.00 | 0.44 | 91 | 1010.0 |
| 20260506153210 | 49 | 245 | 1.0 | 2.0 | 0.00 | 0.00 | 0.44 | 91 | 1010.0 |
| 20260506152709 | 49 | 245 | 2.0 | 2.0 | 0.00 | 0.00 | 0.44 | 92 | 1010.0 |
| 20260506152210 | 49 | 245 | 0.0 | 0.0 | 0.00 | 0.00 | 0.44 | 93 | 1010.0 |
| 20260506151710 | 49 | 245 | 0.0 | 0.0 | 0.00 | 0.00 | 0.44 | 93 | 1010.0 |
| 20260506151209 | 49 | 245 | 0.0 | 0.0 | 0.00 | 0.00 | 0.44 | 94 | 1010.0 |
| 20260506150711 | 49 | 245 | 0.0 | 0.0 | 0.01 | 0.00 | 0.44 | 95 | 1010.0 |
| 20260506150210 | 49 | 245 | 0.0 | 1.0 | 0.01 | 0.00 | 0.44 | 95 | 1010.0 |
| 20260506145709 | 49 | 245 | 0.0 | 1.0 | 0.01 | 0.00 | 0.44 | 95 | 1010.0 |
| 20260506145209 | 49 | 245 | 0.0 | 1.0 | 0.01 | 0.00 | 0.44 | 95 | 1010.0 |
| 20260506144709 | 49 | 245 | 0.0 | 1.0 | 0.01 | 0.00 | 0.44 | 96 | 1010.0 |
| 20260506144213 | 48 | 245 | 3.0 | 3.0 | 0.01 | 0.00 | 0.44 | 96 | 1010.0 |
| 20260506143709 | 48 | 245 | 0.0 | 2.0 | 0.01 | 0.00 | 0.44 | 96 | 1010.0 |
| 20260506143210 | 48 | 245 | 0.0 | 1.0 | 0.01 | 0.00 | 0.44 | 97 | 1010.0 |
| 20260506142709 | 48 | 245 | 1.0 | 2.0 | 0.02 | 0.00 | 0.44 | 96 | 1010.0 |
| 20260506142210 | 48 | 245 | 0.0 | 1.0 | 0.02 | 0.00 | 0.44 | 97 | 1010.0 |
| 20260506141300 | 47 | 245 | 0.0 | 2.0 | 0.02 | 0.00 | 0.44 | 97 | 1010.0 |
| 20260506140711 | 47 | 245 | 0.0 | 1.0 | 0.01 | 0.00 | 0.43 | 97 | 1010.0 |
| 20260506140210 | 47 | 245 | 1.0 | 1.0 | 0.01 | 0.00 | 0.43 | 97 | 1010.0 |
| 20260506135709 | 47 | 245 | 0.0 | 1.0 | 0.01 | 0.00 | 0.43 | 97 | 1010.0 |
| 20260506135209 | 47 | 245 | 0.0 | 1.0 | 0.01 | 0.00 | 0.43 | 97 | 1010.0 |
| 20260506134710 | 47 | 245 | 1.0 | 1.0 | 0.01 | 0.00 | 0.43 | 97 | 1009.0 |
| 20260506134209 | 47 | 245 | 0.0 | 2.0 | 0.01 | 0.00 | 0.43 | 97 | 1009.0 |
| 20260506133709 | 47 | 245 | 0.0 | 1.0 | 0.01 | 0.00 | 0.43 | 97 | 1009.0 |
| 20260506133209 | 46 | 245 | 1.0 | 1.0 | 0.00 | 0.00 | 0.43 | 97 | 1009.0 |
| 20260506132715 | 46 | 245 | 0.0 | 1.0 | 0.00 | 0.00 | 0.42 | 97 | 1009.0 |
| 20260506132210 | 46 | 245 | 0.0 | 1.0 | 0.01 | 0.00 | 0.42 | 97 | 1009.0 |
| 20260506131709 | 46 | 245 | 1.0 | 1.0 | 0.01 | 0.00 | 0.42 | 98 | 1009.0 |
| 20260506131209 | 46 | 245 | 0.0 | 1.0 | 0.01 | 0.00 | 0.42 | 97 | 1009.0 |
| 20260506130709 | 46 | 245 | 0.0 | 1.0 | 0.01 | 0.00 | 0.42 | 97 | 1009.0 |
| 20260506130210 | 46 | 245 | 1.0 | 3.0 | 0.01 | 0.00 | 0.42 | 98 | 1009.0 |
| 20260506125711 | 46 | 245 | 1.0 | 1.0 | 0.01 | 0.00 | 0.42 | 98 | 1009.0 |
| 20260506125211 | 46 | 245 | 0.0 | 1.0 | 0.01 | 0.00 | 0.42 | 98 | 1009.0 |
| 20260506124709 | 46 | 245 | 0.0 | 1.0 | 0.02 | 0.00 | 0.42 | 98 | 1009.0 |
| 20260506124209 | 46 | 245 | 1.0 | 1.0 | 0.02 | 0.00 | 0.42 | 98 | 1009.0 |
| 20260506123709 | 46 | 245 | 0.0 | 1.0 | 0.02 | 0.00 | 0.42 | 98 | 1009.0 |
| 20260506123209 | 46 | 245 | 0.0 | 1.0 | 0.02 | 0.00 | 0.42 | 98 | 1009.0 |
| 20260506122709 | 46 | 245 | 1.0 | 1.0 | 0.02 | 0.00 | 0.42 | 98 | 1009.0 |
| 20260506122210 | 46 | 245 | 1.0 | 2.0 | 0.02 | 0.00 | 0.41 | 98 | 1009.0 |
| 20260506121710 | 46 | 245 | 0.0 | 1.0 | 0.02 | 0.00 | 0.41 | 98 | 1009.0 |
| 20260506121210 | 46 | 245 | 0.0 | 1.0 | 0.02 | 0.00 | 0.41 | 98 | 1009.0 |
| 20260506120709 | 46 | 245 | 0.0 | 1.0 | 0.03 | 0.00 | 0.41 | 98 | 1009.0 |
| 20260506120210 | 46 | 245 | 0.0 | 1.0 | 0.03 | 0.00 | 0.41 | 98 | 1009.0 |
| 20260506115710 | 46 | 245 | 0.0 | 1.0 | 0.03 | 0.00 | 0.41 | 98 | 1009.0 |
| 20260506115210 | 46 | 245 | 1.0 | 1.0 | 0.03 | 0.00 | 0.41 | 98 | 1009.0 |
| 20260506114709 | 46 | 245 | 0.0 | 0.0 | 0.03 | 0.00 | 0.40 | 98 | 1009.0 |
| 20260506114210 | 47 | 245 | 1.0 | 1.0 | 0.03 | 0.00 | 0.40 | 98 | 1009.0 |
| 20260506113712 | 47 | 245 | 0.0 | 0.0 | 0.03 | 0.00 | 0.40 | 98 | 1009.0 |
| 20260506113209 | 47 | 245 | 1.0 | 1.0 | 0.03 | 0.00 | 0.40 | 98 | 1009.0 |
| 20260506112712 | 47 | 245 | 0.0 | 0.0 | 0.03 | 0.00 | 0.40 | 98 | 1008.0 |
| 20260506112210 | 46 | 245 | 0.0 | 0.0 | 0.02 | 0.00 | 0.39 | 98 | 1009.0 |
| 20260506111711 | 46 | 245 | 0.0 | 2.0 | 0.03 | 0.00 | 0.39 | 98 | 1008.0 |
| 20260506111210 | 46 | 245 | 1.0 | 1.0 | 0.03 | 0.00 | 0.39 | 98 | 1009.0 |
| 20260506110709 | 46 | 245 | 0.0 | 0.0 | 0.02 | 0.00 | 0.38 | 98 | 1009.0 |
| 20260506110211 | 46 | 245 | 0.0 | 0.0 | 0.02 | 0.00 | 0.38 | 98 | 1009.0 |
| 20260506105710 | 46 | 245 | 0.0 | 1.0 | 0.03 | 0.00 | 0.38 | 98 | 1009.0 |
| 20260506105211 | 46 | 245 | 0.0 | 1.0 | 0.03 | 0.00 | 0.38 | 98 | 1009.0 |
| 20260506104714 | 46 | 245 | 0.0 | 3.0 | 0.03 | 0.00 | 0.37 | 98 | 1009.0 |
| 20260506104209 | 46 | 245 | 1.0 | 1.0 | 0.03 | 0.00 | 0.37 | 98 | 1009.0 |
| 20260506103712 | 46 | 245 | 0.0 | 1.0 | 0.04 | 0.00 | 0.37 | 98 | 1008.0 |
| 20260506103211 | 46 | 245 | 0.0 | 1.0 | 0.04 | 0.00 | 0.37 | 98 | 1009.0 |
| 20260506102710 | 46 | 245 | 1.0 | 1.0 | 0.04 | 0.00 | 0.37 | 98 | 1009.0 |
| 20260506102210 | 46 | 245 | 0.0 | 0.0 | 0.05 | 0.00 | 0.37 | 98 | 1008.0 |
| 20260506101710 | 46 | 245 | 0.0 | 1.0 | 0.04 | 0.00 | 0.36 | 98 | 1008.0 |
| 20260506101210 | 46 | 245 | 0.0 | 0.0 | 0.04 | 0.00 | 0.36 | 98 | 1008.0 |
| 20260506100711 | 46 | 245 | 0.0 | 1.0 | 0.05 | 0.00 | 0.36 | 98 | 1008.0 |
| 20260506100212 | 46 | 245 | 2.0 | 2.0 | 0.04 | 0.00 | 0.35 | 98 | 1009.0 |
| 20260506095709 | 46 | 245 | 1.0 | 2.0 | 0.05 | 0.00 | 0.35 | 98 | 1009.0 |
| 20260506095209 | 47 | 245 | 0.0 | 1.0 | 0.06 | 0.00 | 0.35 | 98 | 1009.0 |
| 20260506094709 | 47 | 245 | 0.0 | 1.0 | 0.05 | 0.00 | 0.34 | 98 | 1009.0 |
| 20260506094210 | 47 | 245 | 0.0 | 1.0 | 0.06 | 0.00 | 0.34 | 98 | 1009.0 |
| 20260506093711 | 46 | 245 | 1.0 | 1.0 | 0.05 | 0.00 | 0.33 | 98 | 1009.0 |
| 20260506093209 | 46 | 245 | 0.0 | 1.0 | 0.05 | 0.00 | 0.33 | 98 | 1009.0 |
| 20260506092709 | 47 | 245 | 1.0 | 2.0 | 0.05 | 0.00 | 0.32 | 98 | 1009.0 |
| 20260506092209 | 47 | 245 | 1.0 | 1.0 | 0.05 | 0.00 | 0.32 | 98 | 1009.0 |
| 20260506091709 | 47 | 245 | 0.0 | 2.0 | 0.06 | 0.00 | 0.32 | 98 | 1009.0 |
| 20260506091212 | 47 | 245 | 0.0 | 1.0 | 0.06 | 0.00 | 0.31 | 99 | 1009.0 |
| 20260506090710 | 47 | 245 | 1.0 | 2.0 | 0.06 | 0.00 | 0.31 | 98 | 1009.0 |
| 20260506090209 | 47 | 245 | 2.0 | 2.0 | 0.06 | 0.00 | 0.30 | 98 | 1009.0 |
| 20260506085709 | 47 | 245 | 0.0 | 1.0 | 0.06 | 0.00 | 0.30 | 99 | 1009.0 |
| 20260506085210 | 47 | 245 | 0.0 | 1.0 | 0.06 | 0.00 | 0.29 | 99 | 1009.0 |
| 20260506084709 | 47 | 245 | 0.0 | 1.0 | 0.06 | 0.00 | 0.28 | 99 | 1009.0 |
| 20260506084211 | 48 | 245 | 1.0 | 1.0 | 0.06 | 0.00 | 0.28 | 99 | 1009.0 |
| 20260506083709 | 48 | 245 | 3.0 | 3.0 | 0.06 | 0.00 | 0.28 | 99 | 1009.0 |
| 20260506083211 | 48 | 245 | 1.0 | 1.0 | 0.07 | 0.00 | 0.28 | 99 | 1008.0 |
| 20260506082709 | 48 | 245 | 0.0 | 1.0 | 0.06 | 0.00 | 0.27 | 98 | 1008.0 |
| 20260506082210 | 48 | 245 | 0.0 | 1.0 | 0.05 | 0.00 | 0.26 | 98 | 1008.0 |
| 20260506081710 | 48 | 245 | 0.0 | 1.0 | 0.06 | 0.00 | 0.26 | 99 | 1009.0 |
| 20260506081210 | 48 | 245 | 0.0 | 0.0 | 0.05 | 0.00 | 0.25 | 99 | 1009.0 |
| 20260506080709 | 48 | 245 | 1.0 | 1.0 | 0.05 | 0.00 | 0.25 | 99 | 1008.0 |
| 20260506080210 | 48 | 245 | 1.0 | 1.0 | 0.05 | 0.00 | 0.24 | 99 | 1008.0 |
| 20260506073210 | 49 | 245 | 0.0 | 0.0 | 0.05 | 0.00 | 0.21 | 98 | 1009.0 |
| 20260506072709 | 49 | 245 | 0.0 | 1.0 | 0.05 | 0.00 | 0.21 | 98 | 1009.0 |
| 20260506072209 | 49 | 245 | 0.0 | 1.0 | 0.05 | 0.00 | 0.21 | 98 | 1008.0 |
| 20260506071710 | 49 | 245 | 0.0 | 1.0 | 0.05 | 0.00 | 0.20 | 98 | 1009.0 |
| 20260506071210 | 49 | 245 | 2.0 | 2.0 | 0.05 | 0.00 | 0.20 | 98 | 1009.0 |
| 20260506070709 | 49 | 245 | 0.0 | 1.0 | 0.05 | 0.00 | 0.20 | 98 | 1009.0 |
| 20260506070210 | 49 | 245 | 0.0 | 1.0 | 0.04 | 0.00 | 0.19 | 98 | 1009.0 |
| 20260506062209 | 49 | 245 | 0.0 | 0.0 | 0.03 | 0.00 | 0.15 | 98 | 1009.0 |
| 20260506061709 | 49 | 245 | 1.0 | 1.0 | 0.04 | 0.00 | 0.15 | 98 | 1009.0 |
| 20260506061209 | 49 | 245 | 0.0 | 1.0 | 0.05 | 0.00 | 0.15 | 98 | 1009.0 |
| 20260506060709 | 49 | 245 | 1.0 | 1.0 | 0.05 | 0.00 | 0.15 | 98 | 1009.0 |
| 20260506060210 | 49 | 245 | 0.0 | 1.0 | 0.07 | 0.00 | 0.15 | 98 | 1009.0 |
| 20260506051209 | 49 | 245 | 1.0 | 1.0 | 0.09 | 0.00 | 0.10 | 98 | 1010.0 |
| 20260506050710 | 49 | 245 | 0.0 | 1.0 | 0.09 | 0.00 | 0.10 | 98 | 1010.0 |
| 20260506050210 | 49 | 245 | 1.0 | 1.0 | 0.08 | 0.00 | 0.08 | 98 | 1010.0 |
| 20260506044710 | 49 | 245 | 0.0 | 1.0 | 0.05 | 0.00 | 0.05 | 97 | 1010.0 |
| 20260506044209 | 49 | 245 | 0.0 | 1.0 | 0.04 | 0.00 | 0.04 | 98 | 1010.0 |
| 20260506043709 | 49 | 245 | 0.0 | 1.0 | 0.04 | 0.00 | 0.04 | 98 | 1009.0 |
| 20260506043209 | 49 | 245 | 0.0 | 1.0 | 0.03 | 0.00 | 0.03 | 97 | 1009.0 |
| 20260506042709 | 49 | 245 | 1.0 | 1.0 | 0.02 | 0.00 | 0.02 | 98 | 1009.0 |
| 20260506042209 | 49 | 245 | 0.0 | 1.0 | 0.02 | 0.00 | 0.02 | 97 | 1009.0 |
| 20260506041709 | 50 | 245 | 1.0 | 1.0 | 0.02 | 0.00 | 0.01 | 97 | 1009.0 |
| 20260506041209 | 49 | 245 | 0.0 | 1.0 | 0.02 | 0.00 | 0.01 | 98 | 1009.0 |
| 20260506040710 | 49 | 245 | 0.0 | 1.0 | 0.02 | 0.00 | 0.00 | 97 | 1009.0 |
| 20260506040210 | 49 | 245 | 1.0 | 1.0 | 0.02 | 0.00 | 0.59 | 97 | 1009.0 |
| 20260506035710 | 49 | 245 | 0.0 | 1.0 | 0.03 | 0.00 | 0.59 | 97 | 1009.0 |
| 20260506035217 | 49 | 245 | 1.0 | 1.0 | 0.04 | 0.00 | 0.59 | 97 | 1009.0 |
| 20260506034710 | 49 | 245 | 1.0 | 1.0 | 0.04 | 0.00 | 0.59 | 97 | 1009.0 |
| 20260506034211 | 49 | 245 | 0.0 | 1.0 | 0.05 | 0.00 | 0.59 | 97 | 1009.0 |
| 20260506033709 | 50 | 245 | 1.0 | 1.0 | 0.05 | 0.00 | 0.59 | 97 | 1009.0 |
| 20260506033209 | 50 | 245 | 1.0 | 1.0 | 0.06 | 0.00 | 0.59 | 97 | 1009.0 |
| 20260506032709 | 49 | 245 | 0.0 | 1.0 | 0.06 | 0.00 | 0.59 | 97 | 1009.0 |
| 20260506032210 | 49 | 245 | 1.0 | 1.0 | 0.07 | 0.00 | 0.59 | 97 | 1010.0 |
| 20260506031710 | 50 | 245 | 1.0 | 1.0 | 0.06 | 0.00 | 0.58 | 97 | 1010.0 |
| 20260506031210 | 50 | 245 | 0.0 | 1.0 | 0.06 | 0.00 | 0.58 | 97 | 1009.0 |
| 20260506030710 | 50 | 245 | 0.0 | 1.0 | 0.05 | 0.00 | 0.57 | 97 | 1010.0 |
| 20260506030210 | 50 | 245 | 1.0 | 1.0 | 0.06 | 0.00 | 0.57 | 97 | 1010.0 |
| 20260506025709 | 50 | 245 | 0.0 | 0.0 | 0.05 | 0.00 | 0.56 | 97 | 1010.0 |
| 20260506025210 | 50 | 245 | 0.0 | 1.0 | 0.04 | 0.00 | 0.55 | 97 | 1010.0 |
| 20260506024710 | 50 | 245 | 1.0 | 1.0 | 0.04 | 0.00 | 0.55 | 97 | 1010.0 |
| 20260506024209 | 49 | 245 | 0.0 | 1.0 | 0.03 | 0.00 | 0.54 | 97 | 1010.0 |
| 20260506023709 | 49 | 245 | 0.0 | 1.0 | 0.03 | 0.00 | 0.54 | 97 | 1010.0 |
| 20260506023210 | 49 | 245 | 0.0 | 1.0 | 0.02 | 0.00 | 0.53 | 97 | 1010.0 |
| 20260506022710 | 49 | 245 | 1.0 | 1.0 | 0.02 | 0.00 | 0.53 | 97 | 1010.0 |
| 20260506022209 | 49 | 245 | 0.0 | 1.0 | 0.02 | 0.00 | 0.52 | 97 | 1010.0 |
| 20260506021709 | 50 | 245 | 0.0 | 1.0 | 0.02 | 0.00 | 0.52 | 97 | 1010.0 |
| 20260506021210 | 50 | 245 | 1.0 | 1.0 | 0.02 | 0.00 | 0.52 | 97 | 1010.0 |
| 20260506020709 | 49 | 245 | 0.0 | 1.0 | 0.02 | 0.00 | 0.52 | 97 | 1010.0 |
| 20260506020210 | 49 | 245 | 0.0 | 1.0 | 0.01 | 0.00 | 0.51 | 97 | 1010.0 |
| 20260506015710 | 49 | 245 | 1.0 | 1.0 | 0.02 | 0.00 | 0.51 | 97 | 1010.0 |
| 20260506015209 | 49 | 245 | 0.0 | 1.0 | 0.02 | 0.00 | 0.51 | 97 | 1010.0 |
| 20260506014709 | 49 | 245 | 0.0 | 1.0 | 0.02 | 0.00 | 0.51 | 96 | 1010.0 |
| 20260506014209 | 49 | 245 | 1.0 | 1.0 | 0.03 | 0.00 | 0.51 | 96 | 1010.0 |
| 20260506013710 | 50 | 245 | 1.0 | 1.0 | 0.04 | 0.00 | 0.51 | 96 | 1010.0 |
| 20260506013209 | 50 | 245 | 0.0 | 1.0 | 0.05 | 0.00 | 0.51 | 96 | 1010.0 |
| 20260506012709 | 50 | 245 | 1.0 | 2.0 | 0.05 | 0.00 | 0.50 | 96 | 1010.0 |
| 20260506012210 | 50 | 245 | 0.0 | 2.0 | 0.06 | 0.00 | 0.50 | 96 | 1010.0 |
| 20260506011712 | 50 | 245 | 0.0 | 0.0 | 0.07 | 0.00 | 0.50 | 96 | 1010.0 |
| 20260506011210 | 49 | 245 | 0.0 | 0.0 | 0.08 | 0.00 | 0.50 | 96 | 1010.0 |
| 20260506010711 | 49 | 245 | 0.0 | 0.0 | 0.10 | 0.00 | 0.50 | 96 | 1010.0 |
| 20260506010210 | 49 | 245 | 0.0 | 0.0 | 0.10 | 0.00 | 0.49 | 96 | 1010.0 |
| 20260506005710 | 49 | 245 | 0.0 | 0.0 | 0.11 | 0.00 | 0.49 | 96 | 1010.0 |
| 20260506005211 | 49 | 245 | 0.0 | 0.0 | 0.12 | 0.00 | 0.49 | 96 | 1010.0 |
| 20260506004709 | 49 | 245 | 0.0 | 0.0 | 0.14 | 0.00 | 0.49 | 96 | 1010.0 |
| 20260506004209 | 49 | 245 | 0.0 | 1.0 | 0.14 | 0.00 | 0.48 | 96 | 1010.0 |
| 20260506003709 | 49 | 245 | 0.0 | 1.0 | 0.14 | 0.00 | 0.47 | 96 | 1010.0 |
| 20260506003209 | 49 | 245 | 1.0 | 2.0 | 0.14 | 0.00 | 0.46 | 96 | 1010.0 |
| 20260506002713 | 49 | 245 | 0.0 | 2.0 | 0.14 | 0.00 | 0.45 | 95 | 1010.0 |
| 20260506002210 | 49 | 245 | 0.0 | 1.0 | 0.12 | 0.00 | 0.43 | 95 | 1010.0 |
| 20260506001709 | 50 | 245 | 1.0 | 1.0 | 0.12 | 0.00 | 0.42 | 95 | 1010.0 |
| 20260506001209 | 49 | 245 | 0.0 | 1.0 | 0.12 | 0.00 | 0.41 | 95 | 1010.0 |
| 20260506000709 | 50 | 245 | 1.0 | 1.0 | 0.11 | 0.00 | 0.40 | 95 | 1010.0 |
| 20260506000211 | 50 | 245 | 1.0 | 1.0 | 0.11 | 0.00 | 0.39 | 95 | 1010.0 |
| 20260505235709 | 50 | 245 | 0.0 | 1.0 | 0.10 | 0.00 | 0.38 | 95 | 1010.0 |
| 20260505235209 | 50 | 245 | 0.0 | 1.0 | 0.09 | 0.00 | 0.36 | 95 | 1010.0 |
| 20260505234709 | 50 | 245 | 0.0 | 1.0 | 0.09 | 0.00 | 0.35 | 95 | 1009.0 |
| 20260505234209 | 50 | 245 | 0.0 | 0.0 | 0.08 | 0.00 | 0.34 | 95 | 1009.0 |
| 20260505233711 | 50 | 245 | 0.0 | 0.0 | 0.08 | 0.00 | 0.33 | 95 | 1009.0 |
| 20260505233210 | 50 | 245 | 0.0 | 1.0 | 0.08 | 0.00 | 0.32 | 95 | 1009.0 |
| 20260505232709 | 50 | 245 | 1.0 | 1.0 | 0.07 | 0.00 | 0.31 | 95 | 1009.0 |
| 20260505232210 | 50 | 245 | 0.0 | 1.0 | 0.08 | 0.00 | 0.31 | 95 | 1009.0 |
| 20260505231709 | 50 | 245 | 0.0 | 1.0 | 0.07 | 0.00 | 0.30 | 95 | 1009.0 |
| 20260505231210 | 50 | 245 | 1.0 | 1.0 | 0.07 | 0.00 | 0.29 | 95 | 1009.0 |
| 20260505230709 | 50 | 245 | 0.0 | 1.0 | 0.08 | 0.00 | 0.29 | 95 | 1009.0 |
| 20260505230210 | 50 | 245 | 0.0 | 1.0 | 0.08 | 0.00 | 0.28 | 95 | 1009.0 |
| 20260505225709 | 50 | 245 | 1.0 | 3.0 | 0.07 | 0.00 | 0.27 | 95 | 1009.0 |
| 20260505225209 | 50 | 245 | 3.0 | 4.0 | 0.09 | 0.00 | 0.27 | 94 | 1009.0 |
| 20260505224709 | 50 | 245 | 0.0 | 2.0 | 0.09 | 0.00 | 0.26 | 94 | 1009.0 |
| 20260505224209 | 50 | 245 | 2.0 | 3.0 | 0.09 | 0.00 | 0.26 | 94 | 1009.0 |
| 20260505223709 | 50 | 245 | 2.0 | 2.0 | 0.09 | 0.00 | 0.25 | 94 | 1009.0 |
| 20260505223209 | 50 | 245 | 0.0 | 1.0 | 0.09 | 0.00 | 0.24 | 94 | 1009.0 |
| 20260505222709 | 50 | 245 | 2.0 | 2.0 | 0.10 | 0.00 | 0.24 | 94 | 1009.0 |
| 20260505222209 | 50 | 245 | 2.0 | 3.0 | 0.11 | 0.00 | 0.23 | 93 | 1009.0 |
| 20260505221709 | 51 | 245 | 1.0 | 2.0 | 0.12 | 0.00 | 0.22 | 93 | 1009.0 |
| 20260505221211 | 51 | 245 | 1.0 | 3.0 | 0.13 | 0.00 | 0.22 | 93 | 1009.0 |
| 20260505220709 | 51 | 245 | 1.0 | 3.0 | 0.13 | 0.00 | 0.21 | 93 | 1010.0 |
| 20260505220209 | 51 | 245 | 0.0 | 1.0 | 0.13 | 0.00 | 0.20 | 94 | 1009.0 |
| 20260505215709 | 51 | 245 | 3.0 | 3.0 | 0.13 | 0.00 | 0.19 | 93 | 1009.0 |
| 20260505215210 | 51 | 245 | 5.0 | 5.0 | 0.13 | 0.00 | 0.18 | 93 | 1009.0 |
| 20260505214710 | 51 | 245 | 1.0 | 4.0 | 0.12 | 0.00 | 0.17 | 93 | 1009.0 |
| 20260505214210 | 52 | 245 | 1.0 | 6.0 | 0.12 | 0.00 | 0.16 | 93 | 1009.0 |
| 20260505213709 | 52 | 245 | 4.0 | 7.0 | 0.11 | 0.00 | 0.15 | 93 | 1009.0 |
| 20260505213209 | 52 | 245 | 0.0 | 3.0 | 0.10 | 0.00 | 0.15 | 94 | 1009.0 |
| 20260505212710 | 52 | 245 | 1.0 | 2.0 | 0.09 | 0.00 | 0.13 | 94 | 1009.0 |
| 20260505212209 | 52 | 245 | 2.0 | 2.0 | 0.08 | 0.00 | 0.13 | 94 | 1008.0 |
| 20260505211709 | 53 | 245 | 5.0 | 6.0 | 0.06 | 0.00 | 0.10 | 94 | 1009.0 |
| 20260505211212 | 53 | 245 | 3.0 | 3.0 | 0.05 | 0.00 | 0.09 | 93 | 1008.0 |
| 20260505210711 | 52 | 245 | 2.0 | 4.0 | 0.03 | 0.00 | 0.08 | 93 | 1008.0 |
| 20260505210210 | 53 | 245 | 2.0 | 4.0 | 0.03 | 0.00 | 0.07 | 92 | 1008.0 |
| 20260505205709 | 53 | 245 | 4.0 | 6.0 | 0.02 | 0.00 | 0.06 | 92 | 1008.0 |
| 20260505205209 | 53 | 245 | 3.0 | 3.0 | 0.01 | 0.00 | 0.05 | 91 | 1008.0 |
| 20260505204709 | 53 | 245 | 2.0 | 6.0 | 0.01 | 0.00 | 0.05 | 89 | 1008.0 |
| 20260505204210 | 54 | 245 | 4.0 | 5.0 | 0.00 | 0.00 | 0.04 | 88 | 1008.0 |
| 20260505203709 | 54 | 245 | 1.0 | 6.0 | 0.00 | 0.00 | 0.04 | 86 | 1008.0 |
| 20260505203210 | 55 | 245 | 3.0 | 3.0 | 0.00 | 0.00 | 0.04 | 85 | 1007.0 |
| 20260505202709 | 55 | 245 | 2.0 | 2.0 | 0.00 | 0.00 | 0.04 | 84 | 1007.0 |
| 20260505202210 | 55 | 245 | 3.0 | 3.0 | 0.00 | 0.00 | 0.04 | 84 | 1007.0 |
| 20260505201709 | 55 | 245 | 2.0 | 6.0 | 0.00 | 0.00 | 0.04 | 84 | 1007.0 |
| 20260505201210 | 55 | 245 | 5.0 | 5.0 | 0.00 | 0.00 | 0.04 | 85 | 1007.0 |
| 20260505200710 | 54 | 245 | 2.0 | 4.0 | 0.00 | 0.00 | 0.04 | 85 | 1007.0 |
| 20260505200210 | 54 | 245 | 3.0 | 6.0 | 0.00 | 0.00 | 0.04 | 85 | 1007.0 |
| 20260505195709 | 54 | 245 | 7.0 | 7.0 | 0.00 | 0.00 | 0.04 | 85 | 1007.0 |
| 20260505195211 | 54 | 245 | 8.0 | 8.0 | 0.00 | 0.00 | 0.04 | 83 | 1007.0 |
| 20260505194710 | 55 | 245 | 4.0 | 9.0 | 0.00 | 0.00 | 0.04 | 81 | 1007.0 |
| 20260505194209 | 57 | 245 | 4.0 | 6.0 | 0.00 | 0.00 | 0.04 | 77 | 1007.0 |
| 20260505193710 | 57 | 245 | 5.0 | 8.0 | 0.00 | 0.00 | 0.04 | 76 | 1007.0 |
| 20260505193211 | 58 | 245 | 8.0 | 8.0 | 0.00 | 0.00 | 0.04 | 75 | 1006.0 |
| 20260505192711 | 59 | 245 | 9.0 | 9.0 | 0.00 | 0.00 | 0.04 | 73 | 1006.0 |
| 20260505192210 | 61 | 245 | 3.0 | 6.0 | 0.00 | 0.00 | 0.04 | 70 | 1006.0 |
| 20260505191710 | 64 | 245 | 6.0 | 8.0 | 0.00 | 0.00 | 0.04 | 65 | 1006.0 |
| 20260505191210 | 66 | 245 | 6.0 | 7.0 | 0.00 | 0.00 | 0.04 | 64 | 1006.0 |
| 20260505190710 | 66 | 245 | 4.0 | 9.0 | 0.00 | 0.00 | 0.04 | 64 | 1006.0 |
| 20260505190209 | 66 | 245 | 6.0 | 10.0 | 0.00 | 0.00 | 0.04 | 62 | 1006.0 |
| 20260505185709 | 67 | 245 | 7.0 | 13.0 | 0.00 | 0.00 | 0.04 | 61 | 1006.0 |
| 20260505185215 | 67 | 245 | 13.0 | 13.0 | 0.00 | 0.00 | 0.04 | 60 | 1006.0 |
| 20260505184709 | 68 | 245 | 4.0 | 5.0 | 0.00 | 0.00 | 0.04 | 60 | 1006.0 |
| 20260505184210 | 67 | 245 | 6.0 | 7.0 | 0.00 | 0.00 | 0.04 | 60 | 1006.0 |
| 20260505183709 | 68 | 245 | 7.0 | 8.0 | 0.00 | 0.00 | 0.04 | 59 | 1006.0 |
| 20260505183210 | 68 | 245 | 5.0 | 6.0 | 0.00 | 0.00 | 0.04 | 59 | 1006.0 |
| 20260505182709 | 68 | 245 | 5.0 | 13.0 | 0.00 | 0.00 | 0.04 | 59 | 1006.0 |
| 20260505182218 | 68 | 245 | 6.0 | 10.0 | 0.00 | 0.00 | 0.04 | 59 | 1006.0 |
| 20260505181710 | 67 | 245 | 5.0 | 8.0 | 0.00 | 0.00 | 0.04 | 61 | 1006.0 |
| 20260505181212 | 67 | 245 | 8.0 | 9.0 | 0.00 | 0.00 | 0.04 | 60 | 1006.0 |
| 20260505180711 | 67 | 245 | 6.0 | 13.0 | 0.00 | 0.00 | 0.04 | 61 | 1006.0 |
| 20260505180209 | 66 | 245 | 10.0 | 15.0 | 0.00 | 0.00 | 0.04 | 62 | 1006.0 |
| 20260505175709 | 66 | 245 | 10.0 | 12.0 | 0.00 | 0.00 | 0.04 | 63 | 1006.0 |
| 20260505175211 | 65 | 245 | 9.0 | 14.0 | 0.00 | 0.00 | 0.04 | 64 | 1006.0 |
| 20260505174709 | 66 | 245 | 11.0 | 11.0 | 0.00 | 0.00 | 0.04 | 63 | 1006.0 |
| 20260505174211 | 66 | 245 | 8.0 | 11.0 | 0.00 | 0.00 | 0.04 | 63 | 1006.0 |
| 20260505173709 | 66 | 245 | 6.0 | 17.0 | 0.00 | 0.00 | 0.04 | 63 | 1006.0 |
| 20260505173209 | 66 | 245 | 8.0 | 16.0 | 0.00 | 0.00 | 0.04 | 63 | 1006.0 |
| 20260505172709 | 66 | 245 | 9.0 | 13.0 | 0.00 | 0.00 | 0.04 | 63 | 1006.0 |
| 20260505172212 | 66 | 245 | 7.0 | 10.0 | 0.00 | 0.00 | 0.04 | 63 | 1006.0 |
| 20260505171709 | 65 | 245 | 7.0 | 11.0 | 0.00 | 0.00 | 0.04 | 65 | 1006.0 |